Regional Weather Roundup
Issued by NWS Charleston, SC

Current Version | Previous Version | Text Only | Print | Product List | Glossary Off
Versions: 1 2 3 4 5 6 7 8 9 10 11 12 13 14 15 16 17 18 19 20 21 22 23 24 25 26 27 28 29 30 31 32 33 34 35 36 37 38 39 40 41 42 43 44 45 46 47 48 49 50
304 ASUS42 KCHS 162112 RWRCHS REGIONAL WEATHER ROUNDUP NATIONAL WEATHER SERVICE CHARLESTON SC 400 PM EST MON JAN 16 2017 NOTE: "FAIR" INDICATES FEW OR NO CLOUDS BELOW 12,000 FEET WITH NO SIGNIFICANT WEATHER AND/OR OBSTRUCTIONS TO VISIBILITY. NOT ALL STATIONS ARE QUALITY CONTROLLED. USE DATA WITH CAUTION... ESPECIALLY DEWPOINT OBSERVATIONS. SCZ027-030-031-034>040-042>050-162200- ...SOUTHEAST SOUTH CAROLINA... CITY SKY/WX TMP DP RH WIND PRES REMARKS N CHARLESTON CLOUDY 63 57 81 NE7 30.31R WATERFRONT PRK N/A 59 58 97 E7 30.31S MOUNT PLEASANT CLOUDY 61 57 88 E6 30.32S JOHNS ISLAND CLOUDY 61 57 88 E7 30.32R PINOPOLIS N/A 54 54 100 CALM 30.24S MONCKS CORNER CLOUDY 57 55 94 N3 30.31F FOG SUMMERVILLE CLOUDY 61 61 100 NE3 30.32S BEAUFORT MCAS PTSUNNY 68 60 75 E7 30.29S BEAUFORT ARPT FAIR 68 59 73 NE7 30.29S HAZE HILTON HEAD IS N/A 63 57 82 NE5 30.31R FOG WALTERBORO CLOUDY 68 N/A N/A NE5 30.31S ALLENDALE MOCLDY 70 57 64 VRB3 30.27S ...SOUTHERN MIDLANDS AND PEE DEE... CITY SKY/WX TMP DP RH WIND PRES REMARKS GEORGETOWN CLOUDY 55 52 88 NE5 30.34S KINGSTREE CLOUDY 54 52 94 NE3 30.34S ORANGEBURG CLOUDY 58 55 90 NE7 30.32R BARNWELL FAIR 66 59 77 N6 30.30S AIKEN CLOUDY 55 54 94 NE7 30.34S FOG MANNING CLOUDY 55 52 88 NE6 30.33S COLUMBIA CLOUDY 57 53 86 E7 30.32S SUMTER CLOUDY 54 51 89 NE7 30.31F FLORENCE CLOUDY 53 51 93 NE5 30.35S FOG MYRTLE BEACH CLOUDY 61 52 72 E8 30.36R N MYRTLE BEACH CLOUDY 60 52 74 NE6 30.33S $$ GAZ063-065-086>088-099>101-113>116-118-119-134>141-150-162200- ...SOUTHEAST GEORGIA... CITY SKY/WX TMP DP RH WIND PRES REMARKS SAVANNAH ARPT PTSUNNY 73 58 59 E13 30.27S HUNTER AAF MOSUNNY 69 59 70 E12 30.25S FORT STEWART SUNNY 75 59 57 E9 30.23F STATESBORO PTSUNNY 74 60 62 SE5 30.26S HAZE SYLVANIA MOCLDY N/A N/A N/A E7 30.27S CLAXTON MOCLDY 74 70 89 CALM 30.25S ...CSRA...CENTRAL AND FAR SOUTHEAST GEORGIA... CITY SKY/WX TMP DP RH WIND PRES REMARKS THOMSON PTSUNNY 67 60 76 CALM 30.32S AUGUSTA-BUSH MOSUNNY 73 56 54 E12 30.26S AUGUSTA-DANIEL PTSUNNY 68 54 60 E9 30.28S SWAINSBORO FAIR 75 50 41 SW5 30.26R VIDALIA MOSUNNY 77 57 50 S7 30.25R EASTMAN MOCLDY 77 34 20 CALM 30.26S HAZLEHURST FAIR 78 55 43 S7 30.23S ALMA PTSUNNY 75 55 49 SE6 30.23F WAYCROSS MOSUNNY 80 56 45 S10 30.24S JESUP FAIR 75 57 53 SE7 30.25S BAXLEY FAIR 77 59 53 S6 30.24R BRUNSWICK SUNNY 70 63 78 E10 30.28S SAINT SIMONS SUNNY 65 59 81 E13 30.27S $$ SCZ027-028-034-036>038-045-046-048>050-GAZ119-141-162200- ...LAKE AND SUPPLEMENTAL COASTAL OBSERVATIONS... STATION/POSITION TIME TEMP WIND PRES WAVE SWELL AIR SEA DIR/SP/G HT/PER HT/PER/DIR (UTC) (F) (DEG/KT/KT) (MB) (FT/S) (FT/S/D) WINYAH BAY 1945 53 60/ 8 1027.0 LAKE MURRAY 2020 56 70/ 4/ 7 1026.1S ACE BASIN NERRS 1945 67 70/ 2 1026.0 FORT PULASKI 2048 56 80/ 10/ 13 1025.9R SAPELO ISLAND 2000 69 70/ 8 1025.0 $$ ANZ835-935-AMZ111-154-330-350-352-354-370-450-454-472-162200- ...C-MAN AND BUOY OBSERVATIONS... STATION/POSITION TIME TEMP WIND PRES WAVE SWELL AIR SEA DIR/SP/G HT/PER HT/PER/DIR (UTC) (F) (DEG/KT/KT) (MB) (FT/S) (FT/S/D) BUOY 41004 1950 67 71 40/ 14/ 16 1025.3 5/ 5 3/120/ 8 BUOY 41008 1950 61 60 40/ 10/ 12 1025.1 2/11 2/ 80/11 FOLLY BEACH CMAN 2000 56 60/ 8/ 9 1027.1F CAPERS NEARSHORE 2008 53 54 40/ 12/ 17 1026.7R FRIPP NEARSHORE 2008 57 56 80/ 10/ 14 1025.9S STATION/POSITION TIME TEMP WIND PRES WAVE SWELL AIR SEA DIR/SP/G HT/PER HT/PER/DIR (UTC) (F) (DEG/KT/KT) (MB) (FT/S) (FT/S/D) 5E ST. MARYS GA 2030 62 N/A 2/12 2/100/12 FRYING PAN BUOY 2050 64 70 40/ 14/ 16 1026.5F 4/ 6 2/ 80/ 7 BUOY 41025 2050 55 74 10/ 16/ 19 1027.6F 4/ 8 3/ 60/ 8 CAPE LOOKOUT NC 2000 52 30/ 16/ 18 1027.4F BUOY 41002 2050 70 72 130/ 6/ 8 1026.3R 4/ 8 3/ 40/ 8 BUOY 41010 NOT AVBL ST AUGUSTINE FL 2100 68 67 90/ 7/ 7 1025.0F $$

USA.gov is the U.S. government's official web portal to all federal, state and local government web resources and services.